Theta_e
276 276 275 275 275 275 275 274 274 274 274 274 274 274 274 275 275 275 275 275 274 274 274 274 274 274 274 274 274 274 273 272 273 273 272 272 271 271 272 272 272 272 271 271 271 271 271 271 271 271 271 271 271 272 272 272 273 273 274 274 274 275 275
276 276 275 275 275 275 274 274 274 274 274 274 274 274 274 274 275 275 275 274 274 274 274 274 274 274 274 274 274 274 273 272 272 272 272 271 271 271 271 271 272 271 271 271 271 271 271 271 271 271 271 271 272 272 272 272 272 273 273 273 274 274 275
276 275 275 275 275 274 274 274 274 274 274 274 274 274 274 274 274 274 274 274 274 274 274 274 274 274 274 274 274 273 272 272 272 272 271 270 270 271 271 271 271 271 271 271 271 271 271 271 271 271 272 272 272 272 272 272 272 272 273 273 274 274 274
276 275 275 275 274 274 274 274 274 274 274 274 274 274 274 274 274 274 274 274 274 274 274 274 274 275 275 274 273 272 272 271 272 271 270 269 270 270 270 270 271 271 271 271 271 271 271 271 271 271 271 272 272 272 272 272 272 272 273 273 274 274 274
276 275 275 275 274 274 274 274 274 274 274 274 274 274 274 274 274 274 274 273 273 273 274 274 275 275 275 274 273 272 271 271 271 271 270 269 269 270 270 270 270 271 271 271 271 271 271 271 271 271 272 272 272 272 272 272 272 273 273 273 274 274 274
276 275 275 274 274 274 274 274 274 274 274 274 273 273 273 273 273 273 273 273 273 273 274 275 275 275 275 274 273 272 271 271 271 270 269 269 269 270 270 270 271 271 271 272 272 272 272 272 272 272 272 272 272 272 272 272 273 273 273 273 274 274 275
275 275 275 274 274 274 274 274 274 274 273 273 273 273 273 273 273 273 272 272 273 274 275 275 275 275 275 274 273 272 271 270 270 270 269 270 270 270 271 271 272 272 272 272 272 272 272 272 272 272 272 272 272 272 272 272 273 273 273 273 274 274 275
275 275 275 275 274 274 274 274 274 274 273 273 273 273 273 273 273 272 272 273 274 275 275 275 275 275 274 273 272 272 271 271 271 270 270 270 270 271 271 272 272 272 273 273 273 273 273 272 272 272 272 272 272 272 272 273 273 273 273 274 274 275 275
275 275 275 275 274 274 274 274 274 273 273 273 273 273 273 272 272 272 273 274 275 275 275 275 275 274 273 272 272 272 272 272 272 271 270 270 271 271 272 272 272 273 273 273 272 272 272 272 272 272 271 271 271 272 272 272 273 273 273 274 274 275 275
275 275 275 274 274 274 274 274 274 273 273 273 273 273 272 272 272 273 274 274 275 275 276 275 274 273 273 272 272 272 272 272 271 270 270 271 271 272 272 273 273 273 272 272 272 271 271 271 271 271 271 271 271 271 272 272 272 273 273 274 274 275 275
275 275 274 274 274 274 274 274 273 273 274 274 274 273 273 272 273 274 274 275 275 275 275 275 274 273 272 272 272 271 271 270 270 269 270 271 272 272 272 273 273 272 271 271 271 271 271 270 271 271 271 271 271 271 271 271 272 273 274 274 274 274 275
275 274 274 274 274 274 274 274 273 274 274 275 274 274 274 273 273 274 274 275 275 275 275 274 273 273 272 272 271 271 270 270 269 268 269 271 271 272 272 272 272 271 271 271 271 270 270 270 270 270 270 270 270 271 271 271 271 272 273 273 273 273 274
275 274 274 274 274 274 274 273 273 274 275 275 275 275 274 274 274 274 274 275 275 275 274 274 273 273 272 272 271 270 270 269 268 268 269 271 271 271 271 270 270 270 270 270 270 270 270 269 269 269 268 269 269 270 271 271 271 272 272 273 273 273 274
275 274 274 274 274 274 274 273 273 274 275 275 275 275 275 274 274 274 274 274 274 274 274 273 273 272 272 271 271 270 270 269 268 269 270 271 271 270 269 268 268 268 268 269 269 269 269 269 268 268 268 268 268 269 269 270 271 271 272 273 273 273 274
275 274 274 274 274 274 274 273 273 274 275 275 275 275 274 274 274 274 274 274 274 274 273 273 272 272 272 271 271 270 269 268 268 270 272 272 271 269 268 267 267 267 268 269 269 269 269 269 268 268 268 268 268 269 269 269 270 270 271 271 272 272 273
275 274 274 274 274 274 274 273 274 274 275 275 275 275 274 274 273 273 274 274 274 273 273 272 272 271 271 271 271 270 269 269 270 272 272 271 269 268 267 267 267 268 269 270 270 269 269 269 269 269 269 269 269 269 269 270 270 270 271 271 271 272 273
275 275 274 274 274 274 274 273 274 274 275 275 275 275 274 273 273 273 273 273 273 273 272 272 271 271 271 271 270 269 269 270 272 272 272 270 269 268 267 266 267 268 268 268 269 269 268 268 268 268 267 267 267 268 269 269 269 270 271 272 272 272 273
275 275 274 274 274 274 274 273 273 274 275 275 275 275 274 273 273 273 273 273 273 273 272 271 271 271 271 270 270 269 269 271 272 272 271 270 268 267 266 267 268 268 268 267 267 267 267 267 266 266 265 264 265 265 266 267 268 269 270 271 272 273 273
275 274 274 274 274 274 274 273 273 274 275 275 275 274 273 273 273 273 273 273 273 272 271 271 270 270 270 270 269 269 270 272 272 271 270 269 268 267 267 268 269 268 267 266 266 265 265 265 265 264 263 263 263 264 264 265 266 267 268 269 271 273 273
274 274 274 274 274 274 274 273 273 273 274 275 275 274 273 273 273 273 273 273 272 271 271 270 270 269 269 269 268 269 271 271 271 271 269 268 267 267 268 269 269 267 266 265 265 265 265 265 265 264 263 262 262 262 262 263 263 265 266 268 269 271 272
274 274 274 274 274 273 273 273 273 273 274 274 274 274 274 273 273 273 273 272 271 271 271 270 269 269 268 268 268 270 271 271 271 270 268 267 267 269 269 269 267 265 265 264 264 265 265 265 265 264 263 263 262 262 262 262 262 263 264 265 267 269 270
274 274 274 274 273 273 273 273 273 272 273 274 274 274 274 273 273 273 272 272 271 271 270 269 268 268 268 268 268 270 271 270 269 268 267 268 269 269 268 266 265 264 264 264 264 264 264 264 264 264 263 263 262 262 262 261 262 262 263 264 265 266 268
274 273 273 273 273 273 273 273 273 272 273 273 274 274 274 274 274 273 273 272 271 270 269 268 268 268 268 268 269 270 270 269 268 267 267 268 268 267 265 264 263 263 263 263 263 263 263 263 264 263 263 263 263 262 262 262 262 262 263 263 264 265 266
273 273 273 273 273 273 273 273 272 272 272 272 273 273 273 274 274 274 273 272 270 269 268 268 268 268 268 269 269 269 268 267 266 267 267 267 266 265 264 263 263 263 263 263 263 262 263 263 263 263 263 263 263 262 262 262 262 263 263 264 264 265 266
273 273 273 273 273 272 272 272 272 272 272 272 272 273 273 274 274 274 272 271 270 269 268 268 268 268 268 268 268 267 266 265 265 266 266 265 265 263 263 263 263 263 262 262 262 262 262 262 262 262 263 263 262 262 262 262 263 263 264 264 265 266 266
273 273 273 272 272 272 272 272 272 272 272 272 272 273 273 274 274 273 272 270 269 269 268 268 267 267 267 266 266 266 265 264 264 264 264 264 263 263 262 263 263 262 262 262 262 262 262 262 262 262 263 263 262 262 262 262 263 263 264 265 265 266 267
272 272 272 272 272 272 272 272 272 272 271 271 272 272 273 273 274 273 271 270 269 268 268 267 267 267 266 266 266 265 265 264 264 264 263 263 263 262 262 262 262 262 262 262 262 262 262 261 261 262 262 262 262 262 262 262 263 263 264 265 265 266 267
272 272 272 272 273 273 273 272 272 272 271 271 271 271 272 272 272 271 270 269 268 268 268 267 266 266 266 266 266 265 265 264 264 264 263 263 263 263 262 262 262 262 262 262 262 262 261 261 261 261 262 262 262 262 262 262 263 263 263 265 265 266 266
273 273 273 273 273 273 273 273 272 272 272 272 271 271 271 271 271 270 269 268 268 268 267 266 266 266 265 265 265 265 264 264 264 264 264 263 263 262 262 262 262 262 262 262 262 261 261 261 261 261 261 261 262 262 262 262 262 262 263 264 265 265 265
273 273 273 273 273 273 273 273 273 273 273 273 272 272 272 271 270 269 269 268 267 267 267 266 265 265 265 264 264 263 263 263 263 263 263 263 263 262 262 262 262 262 261 262 262 261 261 261 261 261 261 261 261 261 262 262 262 262 262 264 264 264 265
274 274 273 273 273 273 274 274 273 273 274 274 274 274 273 271 271 270 269 268 267 267 266 265 265 264 264 264 263 262 262 262 262 262 262 263 263 263 262 262 262 262 261 262 262 261 261 261 261 261 261 261 261 261 261 262 262 262 262 263 263 264 264
275 274 274 274 273 273 274 274 274 274 274 274 274 274 273 272 271 270 269 268 267 266 265 265 265 264 264 263 263 262 262 262 262 262 262 262 262 262 262 262 262 262 262 262 262 261 261 261 261 260 260 260 260 260 261 261 261 262 262 262 262 263 263
275 275 275 275 274 274 274 274 275 275 275 275 274 274 273 271 271 270 269 268 267 266 265 265 264 264 263 263 262 262 262 262 262 262 262 262 262 262 262 262 262 262 262 262 262 261 261 261 260 260 260 260 260 260 260 261 261 261 261 261 262 262 262
275 275 275 275 275 275 274 275 275 275 275 275 274 273 272 271 270 270 269 267 266 266 265 264 264 264 263 262 262 262 262 262 262 262 263 263 262 262 262 262 262 262 262 262 261 261 261 261 260 260 260 260 260 260 260 260 260 261 261 261 261 262 262
275 275 276 276 276 275 275 275 275 275 275 275 274 273 272 270 269 268 267 266 266 265 265 265 265 264 263 262 262 263 262 262 262 262 262 263 262 262 262 262 262 262 262 262 261 261 261 261 260 260 260 260 260 259 259 260 260 260 260 260 260 261 261
274 275 275 276 276 276 275 275 275 275 276 275 274 273 271 268 267 266 266 265 265 265 265 265 265 265 264 263 262 263 263 262 262 262 262 262 262 262 263 263 263 262 262 262 261 261 261 261 260 260 260 260 259 259 259 259 259 260 260 260 260 260 261
Wind_Speed
19 18 18 17 17 16 16 16 16 15 15 15 15 15 16 16 16 15 15 15 16 15 16 17 19 20 21 22 24 25 25 23 21 19 19 20 20 20 19 20 17 12 15 21 23 25 27 27 27 27 27 27 29 28 27 26 27 29 29 29 28 28 26
20 20 19 18 18 17 17 17 16 16 16 16 16 16 16 16 16 16 16 16 16 16 16 18 20 21 23 24 24 24 25 23 20 18 19 20 20 20 19 18 19 17 14 17 22 25 26 25 25 26 26 26 27 28 27 27 27 27 29 29 29 29 27
21 20 19 19 18 18 17 17 17 16 16 16 17 17 17 17 17 17 17 16 16 16 17 19 21 23 24 23 23 25 25 23 21 19 19 20 20 20 21 20 21 20 15 15 20 25 25 24 24 25 26 26 27 28 28 28 28 28 28 29 29 29 29
21 20 20 20 19 18 18 18 17 17 17 17 17 17 18 18 18 18 18 18 18 18 19 21 22 23 23 22 23 25 24 23 22 20 20 22 21 20 22 22 22 22 21 19 19 22 25 26 26 26 27 27 28 29 28 28 28 27 27 29 29 29 29
22 21 20 20 20 19 19 18 18 18 18 18 17 17 18 18 18 19 19 19 20 20 22 24 24 23 21 22 23 24 24 22 21 21 22 23 23 22 23 24 23 23 25 23 21 23 27 27 27 28 27 27 28 28 28 27 27 26 26 27 27 27 28
22 22 21 21 20 19 19 19 18 18 18 18 17 17 17 17 18 19 20 21 21 22 24 25 25 22 21 24 25 25 25 23 22 24 25 25 26 26 25 24 23 23 24 25 25 25 26 25 26 27 26 25 26 27 27 26 26 26 25 25 26 26 26
23 22 21 21 20 19 19 19 18 19 18 18 17 17 17 17 18 19 19 20 21 22 24 24 23 22 24 26 26 26 25 24 24 24 24 25 26 25 24 23 23 23 24 24 24 23 23 24 24 25 25 25 26 27 27 26 24 22 23 23 23 24 24
25 23 21 20 20 19 19 19 19 19 19 18 17 16 17 17 17 17 18 19 20 22 23 23 22 23 25 25 24 24 24 23 23 22 23 24 24 24 25 25 25 23 20 20 21 21 23 24 23 24 25 25 24 22 21 22 22 20 20 21 20 21 22
25 23 22 21 20 19 19 19 20 19 19 18 17 17 17 17 15 15 16 17 19 22 21 21 22 24 24 23 22 21 21 20 20 20 23 24 24 25 26 25 25 21 16 16 17 18 19 19 18 20 22 21 20 19 19 22 23 21 21 22 20 20 20
24 24 23 22 21 20 20 20 20 19 17 17 17 17 16 14 13 14 15 18 20 21 21 21 22 22 22 21 19 19 19 19 19 20 23 24 25 27 27 26 24 20 16 14 15 17 17 13 12 17 20 20 20 21 22 23 22 21 21 19 16 17 18
25 24 23 23 22 21 21 22 21 19 17 16 16 16 15 13 13 14 16 18 20 20 20 22 21 20 20 20 20 20 20 19 19 21 23 24 26 27 26 25 24 22 20 17 15 17 18 13 11 16 19 20 22 22 21 22 22 21 18 11 7 9 12
25 24 23 23 22 22 22 22 20 18 17 17 16 16 15 14 14 14 16 18 19 19 21 22 22 21 21 20 20 20 20 21 23 24 24 26 26 25 25 24 23 24 24 21 17 17 17 15 14 16 18 19 21 21 20 21 21 20 17 12 8 8 11
24 24 23 23 23 23 23 22 20 18 17 17 16 15 15 14 14 15 16 17 18 20 21 22 22 22 21 21 20 19 21 25 27 26 26 27 25 25 26 23 22 24 25 25 23 20 19 19 17 18 20 21 21 21 20 18 18 19 19 17 14 13 15
24 24 24 24 23 22 22 22 20 18 17 17 16 15 14 14 15 15 16 17 18 19 20 21 21 22 22 23 21 20 23 26 26 26 27 26 26 29 29 25 24 25 25 26 25 23 23 24 22 23 25 24 24 24 22 19 18 18 19 19 18 18 20
25 24 23 23 23 22 22 22 20 18 17 17 16 15 14 14 14 15 16 17 17 18 19 20 20 21 22 23 22 22 23 23 24 25 26 27 29 31 30 28 26 25 25 25 24 23 24 25 25 25 26 26 26 27 27 25 25 25 25 25 23 22 24
24 24 24 24 23 22 22 22 19 18 17 17 16 15 14 13 13 14 15 16 16 17 18 19 19 20 21 22 23 24 22 20 21 24 25 27 29 30 30 30 26 22 22 23 22 22 23 23 23 24 23 23 24 25 25 25 24 26 27 23 18 14 17
23 24 25 24 24 23 22 21 20 18 17 17 16 15 14 14 13 13 14 15 15 16 17 18 17 18 19 21 24 24 20 18 21 23 24 26 28 29 29 30 28 25 24 22 20 21 21 20 21 23 22 22 22 21 22 19 15 16 17 13 9 7 9
23 22 24 24 25 24 23 21 20 18 17 18 17 15 15 13 12 13 13 13 14 15 16 16 16 16 17 20 22 21 18 18 20 22 23 24 25 26 27 27 28 29 30 28 25 23 21 19 20 22 21 20 20 19 20 17 13 15 14 9 6 6 6
22 21 22 23 24 23 22 22 20 18 17 18 16 16 15 13 12 13 12 12 14 15 15 15 15 15 15 17 18 18 17 18 19 20 22 22 20 22 25 27 27 28 29 30 29 27 25 22 21 22 22 20 18 16 15 13 12 14 15 11 9 7 5
23 22 21 22 22 21 21 22 20 18 18 17 17 16 15 14 13 13 11 11 12 14 15 16 16 16 16 17 17 17 18 18 17 17 19 18 17 20 24 27 27 25 25 27 28 27 25 22 21 22 21 20 19 16 14 13 11 11 14 15 13 12 8
23 22 21 21 22 22 22 22 21 20 18 17 17 17 15 15 15 13 11 11 12 13 15 17 17 17 17 16 16 17 17 16 16 16 14 14 16 20 22 23 23 23 24 25 26 25 23 21 21 20 19 19 19 17 15 15 13 11 13 15 16 15 12
23 22 21 20 20 22 23 22 22 20 18 18 17 16 15 16 15 12 11 11 12 14 15 16 17 17 15 15 16 17 16 15 15 14 13 14 17 19 19 18 19 22 24 24 24 23 21 21 21 21 20 19 20 19 18 18 16 13 14 16 19 19 16
23 22 21 20 20 21 21 21 21 20 20 19 18 16 16 15 14 11 11 12 13 14 15 16 15 14 13 14 16 16 14 13 14 13 13 16 18 18 18 19 20 22 24 24 23 21 20 21 22 22 21 21 23 23 21 20 17 13 12 15 19 23 25
22 21 20 20 20 20 21 22 21 21 21 20 18 17 16 15 13 11 11 11 13 14 14 13 12 11 12 15 15 13 12 12 13 13 14 16 17 17 19 21 22 24 24 23 22 21 21 22 23 23 23 24 25 24 22 20 17 12 8 9 15 21 26
21 20 19 19 19 20 21 23 23 22 21 19 18 17 16 14 13 11 10 10 11 12 10 9 9 10 11 13 12 11 12 12 12 13 14 15 17 19 21 22 23 24 23 21 21 21 22 23 25 25 24 25 25 23 22 22 21 16 11 6 6 12 16
21 19 18 18 18 19 20 21 22 23 22 19 18 17 15 13 12 11 9 9 10 9 6 6 7 8 9 10 10 10 10 11 11 12 14 16 18 20 21 22 22 23 22 21 21 22 22 24 26 25 24 25 26 24 22 24 24 21 17 13 7 4 5
21 20 19 18 18 18 20 20 21 22 21 20 20 18 16 14 13 12 10 9 8 6 4 5 5 5 6 7 6 6 7 8 11 14 16 18 19 20 21 20 20 20 21 20 21 22 23 24 26 25 24 26 29 28 25 25 26 24 20 18 14 10 9
23 23 22 20 19 18 17 18 20 22 23 23 22 20 18 16 15 14 12 10 7 4 3 3 2 2 3 4 4 5 7 9 12 14 17 18 19 20 21 21 20 21 22 22 22 22 23 25 26 26 25 25 28 30 28 27 28 25 19 18 16 10 8
26 27 26 23 22 21 18 17 21 24 24 23 21 20 19 18 16 15 12 8 5 4 3 2 1 2 3 4 6 7 10 12 14 15 17 18 19 20 21 22 23 24 24 23 23 22 23 25 25 26 26 25 25 28 28 26 28 26 20 17 15 10 8
28 29 28 25 25 25 23 22 23 23 22 21 20 19 17 16 14 12 10 8 8 6 4 4 3 2 3 4 6 8 10 11 13 14 16 18 19 20 22 23 23 23 23 23 23 23 23 24 24 24 25 25 24 25 25 25 28 29 25 20 15 10 10
29 28 27 26 25 24 22 19 18 19 21 21 20 19 16 15 14 13 11 10 10 8 6 6 5 3 3 2 3 5 7 8 10 12 14 16 18 20 21 23 23 23 23 22 22 23 23 23 24 24 24 24 23 23 24 25 26 29 31 28 20 13 13
27 26 26 25 25 24 21 17 16 20 22 22 20 19 18 16 15 14 13 11 10 8 7 7 6 5 3 1 1 3 5 6 8 10 12 14 17 19 20 21 21 21 22 21 22 23 24 23 23 23 23 23 23 22 23 24 24 25 29 29 22 16 17
26 26 25 24 23 23 21 19 18 21 22 21 20 20 18 16 15 14 14 13 11 10 9 8 7 6 4 3 1 1 3 5 6 8 10 12 14 16 17 18 19 20 21 21 21 22 23 23 23 23 22 23 24 23 22 22 23 23 24 24 19 16 19
24 26 26 25 24 23 22 20 20 21 22 21 21 20 19 17 16 14 12 11 12 12 10 10 9 8 6 4 3 1 1 3 6 7 10 11 12 13 15 17 18 20 21 21 21 22 23 23 23 23 23 22 23 23 22 22 23 23 22 22 19 15 18
22 25 26 25 24 24 23 22 22 22 22 22 22 22 21 19 18 16 14 12 12 12 12 11 11 9 8 6 4 2 2 2 4 6 9 10 11 12 15 16 18 19 20 20 21 21 22 22 23 23 23 22 22 23 22 21 23 22 21 22 20 17 17
18 22 25 25 25 24 24 24 24 23 23 23 23 24 24 22 20 19 17 16 15 14 13 12 11 9 9 8 5 4 3 1 2 4 6 8 8 11 14 14 15 16 18 19 20 20 21 22 23 24 24 22 22 23 22 21 22 22 21 22 22 19 18
Wind_Direction
208 208 210 212 212 213 216 218 218 219 220 223 226 229 233 238 243 249 255 261 265 267 271 276 279 280 282 283 281 282 289 292 288 282 284 290 291 285 283 283 281 280 286 289 291 293 295 298 299 298 298 297 297 297 297 296 295 295 294 293 292 291 289
207 208 210 212 213 214 217 219 219 219 220 223 227 228 232 237 243 249 255 258 262 267 272 276 278 280 282 279 277 282 290 290 284 281 287 291 288 283 282 281 279 281 285 289 293 294 294 296 297 295 297 297 296 297 298 296 296 295 293 292 290 289 288
207 209 210 212 214 215 218 220 220 220 222 224 228 229 232 237 242 249 254 257 261 268 274 276 277 278 278 276 278 285 289 288 283 281 287 291 288 283 280 277 275 277 279 285 290 292 293 295 294 292 294 296 294 295 296 294 293 293 290 289 287 286 286
207 210 211 213 215 215 218 220 220 222 224 225 228 232 235 239 245 250 255 257 261 267 273 277 276 274 273 275 281 286 288 287 282 279 286 291 287 279 277 274 271 270 272 278 284 285 287 289 289 288 289 291 291 291 291 290 290 291 289 287 284 283 284
207 209 211 214 215 216 218 220 221 222 224 226 228 233 238 242 248 253 256 258 262 267 273 276 273 268 269 275 281 285 286 284 279 279 286 289 282 275 273 272 269 267 267 271 277 281 283 283 283 283 284 286 288 289 289 288 287 289 288 287 285 282 282
206 208 212 215 216 218 219 220 222 223 224 227 229 233 239 244 249 253 257 261 265 270 275 275 269 266 272 277 281 283 283 281 280 282 286 287 282 277 274 270 268 268 267 268 271 276 281 283 283 282 282 283 286 287 288 289 288 287 286 286 287 284 282
203 207 212 216 218 220 221 221 223 224 226 228 229 234 239 243 248 255 261 265 267 270 273 272 269 272 278 280 280 281 282 282 281 280 284 287 286 283 279 276 275 273 270 269 270 274 279 283 283 283 283 285 287 284 282 283 285 286 283 280 280 279 279
201 205 209 214 217 219 221 223 224 225 227 228 229 233 237 242 249 257 264 267 268 270 272 271 273 279 282 282 282 282 282 282 279 280 286 289 289 287 283 280 280 277 271 269 272 276 280 282 282 281 283 286 287 283 278 277 278 280 283 282 278 275 277
201 202 205 210 215 218 221 224 226 227 227 228 230 232 237 244 250 257 264 269 272 274 273 274 279 282 283 283 283 282 283 281 279 284 290 291 291 291 289 285 281 278 274 276 280 283 285 286 284 283 285 285 283 282 281 280 279 279 282 284 283 280 282
201 201 203 206 210 215 219 223 226 227 225 226 230 233 239 245 249 255 264 270 274 275 276 279 282 282 283 283 280 281 283 281 282 288 290 292 295 296 295 294 290 287 287 288 288 289 288 286 282 281 282 281 281 283 284 283 280 278 278 279 280 283 285
201 201 202 205 208 212 217 221 225 225 223 224 227 232 239 244 251 259 265 268 273 276 278 282 284 284 285 283 281 285 285 281 286 291 291 294 298 298 298 299 300 301 299 292 285 286 288 285 284 284 283 281 281 280 281 281 279 277 278 281 285 288 288
202 202 202 204 208 212 216 220 222 221 223 225 225 229 236 243 252 261 265 269 274 278 280 283 286 286 285 283 285 287 284 285 292 296 296 299 300 300 300 300 301 302 300 295 289 288 290 288 290 294 292 286 281 277 276 276 277 281 285 286 285 282 284
203 203 202 204 208 212 217 220 219 219 223 225 226 228 234 242 253 259 266 272 275 279 281 283 286 287 286 286 288 285 283 290 299 303 306 306 304 302 304 302 298 296 295 295 292 288 287 286 286 288 288 287 285 283 281 275 272 277 278 274 272 272 276
205 204 203 204 207 210 216 220 219 219 223 225 227 229 234 243 253 259 266 272 275 278 280 282 286 287 287 290 289 286 289 298 303 305 307 308 306 306 308 306 303 302 298 293 287 282 283 286 284 279 278 282 282 280 281 279 276 276 275 273 274 277 281
207 205 204 205 206 207 214 219 217 216 222 225 225 228 234 243 252 259 266 271 274 278 279 282 286 286 287 290 288 288 295 301 301 301 304 306 308 309 310 308 308 308 305 299 292 288 289 291 288 280 276 276 275 271 271 271 270 273 277 280 283 284 285
207 206 205 204 205 207 212 217 215 213 219 224 224 227 232 239 249 258 265 272 275 278 280 283 285 286 287 289 289 293 298 299 298 302 305 308 309 310 310 311 313 313 309 307 305 304 302 301 298 294 289 284 279 275 274 270 267 268 268 269 275 278 279
206 207 206 204 204 207 210 215 214 211 216 222 222 224 228 234 245 255 264 271 275 278 282 283 285 287 289 290 292 296 301 302 303 307 309 309 310 310 310 313 320 322 320 317 316 314 314 315 313 309 305 300 295 291 289 286 279 274 266 256 253 254 264
206 207 207 206 208 208 210 215 215 211 214 220 220 220 225 231 241 252 262 271 275 279 282 284 286 290 291 292 295 298 303 307 311 312 310 310 311 310 309 315 322 325 325 324 324 324 322 320 320 320 319 314 306 299 296 292 281 278 279 270 254 248 251
203 204 205 207 210 210 211 216 217 211 211 216 216 218 223 228 237 250 259 268 276 281 282 284 289 293 292 293 297 301 306 312 316 314 311 312 311 306 308 316 324 326 326 325 325 326 324 320 321 326 329 326 319 311 305 298 283 276 274 273 280 278 266
201 202 204 206 208 209 210 215 216 211 209 213 214 216 219 224 233 244 254 264 274 280 281 286 292 293 294 296 299 303 309 317 321 317 312 312 308 303 309 320 326 327 327 325 323 325 326 325 325 328 333 335 333 330 321 309 296 276 263 263 274 277 273
200 201 202 204 206 208 210 213 214 213 211 212 214 214 215 222 230 238 248 260 269 273 278 287 292 295 301 303 302 306 315 322 325 322 317 313 310 312 319 327 330 330 332 331 328 328 329 330 333 333 336 340 339 336 330 320 310 287 264 256 258 260 263
198 198 199 200 203 207 210 213 217 217 213 209 211 213 215 221 229 235 240 249 258 266 276 286 292 300 311 313 307 311 320 328 329 327 323 322 325 329 336 340 340 340 341 339 336 334 334 336 340 339 338 340 339 336 333 327 318 298 271 255 248 247 250
198 196 196 198 202 206 209 212 214 214 211 210 213 215 216 220 226 230 234 241 252 266 278 287 295 308 320 317 312 318 329 337 336 331 332 337 342 345 350 354 353 351 348 344 341 341 340 341 343 342 343 344 340 337 335 334 330 313 280 259 249 244 244
200 196 195 197 201 204 207 210 211 210 212 216 220 218 215 218 223 225 231 241 254 269 282 293 306 318 320 315 316 323 336 345 343 339 345 353 355 357 1 2 360 356 351 348 347 346 344 344 345 344 344 345 341 339 341 344 347 344 314 272 255 248 246
201 201 199 197 198 201 204 208 210 211 213 216 220 218 214 214 218 221 225 237 255 273 287 300 310 312 311 313 320 330 343 352 350 349 358 5 5 7 10 8 2 358 355 352 350 347 344 344 345 345 346 349 349 350 354 358 2 7 5 343 272 254 252
203 203 203 201 200 199 200 203 207 211 214 212 211 213 211 208 212 216 217 231 254 272 280 286 298 306 315 325 332 341 352 358 356 2 15 19 15 14 15 11 4 0 357 352 349 348 345 345 346 348 352 358 2 4 4 3 4 6 12 21 20 339 298
205 204 205 204 200 197 198 199 201 206 208 205 204 205 204 202 205 208 213 229 246 255 255 267 292 318 327 330 340 0 14 13 11 19 27 25 20 18 18 14 7 4 1 356 351 349 348 349 352 355 358 2 7 10 8 6 7 8 10 17 21 15 8
207 208 207 203 196 192 193 196 198 201 202 201 200 198 196 197 202 208 216 228 234 228 232 263 312 346 336 335 357 25 31 25 24 29 31 26 21 20 18 16 13 11 10 5 359 355 354 356 359 1 1 1 6 10 11 12 13 12 9 14 22 24 11
212 213 210 204 197 192 188 192 200 202 201 200 197 194 193 197 202 210 216 214 202 199 202 185 53 24 14 12 15 23 24 18 18 27 30 26 22 19 17 16 14 11 7 4 2 0 360 360 1 2 3 3 5 8 11 14 15 15 14 18 22 22 11
220 218 213 209 205 201 198 200 202 199 194 193 189 186 188 191 193 197 201 189 180 186 178 144 109 56 40 27 12 16 17 8 7 17 23 22 22 21 16 14 13 9 5 4 5 4 4 4 3 2 3 5 4 4 7 12 15 17 20 20 15 9 5
225 222 216 211 209 206 204 202 197 189 185 185 182 177 176 177 177 178 181 178 175 173 161 146 136 111 78 40 2 11 14 1 1 15 19 17 20 21 16 12 11 8 6 6 7 7 8 9 8 5 5 5 4 3 5 9 13 17 20 20 18 13 5
225 223 217 212 209 204 198 193 188 185 183 180 176 173 170 169 171 171 171 172 170 164 158 153 145 135 128 164 319 17 17 360 1 18 25 20 17 17 14 11 9 8 9 10 8 8 9 11 10 9 9 8 7 6 7 9 11 13 15 16 16 15 10
224 221 216 210 206 200 194 188 185 183 180 176 172 169 165 165 167 166 167 172 170 163 159 158 152 151 163 188 211 31 25 5 5 23 33 29 20 14 12 13 13 12 14 15 12 11 12 13 13 13 12 12 13 11 10 11 12 11 13 13 10 7 8
223 221 215 208 202 197 191 185 181 179 178 174 170 166 162 160 160 159 164 175 176 169 166 165 161 162 172 184 196 178 59 13 8 25 36 34 29 23 19 17 16 16 16 16 15 16 16 16 17 17 15 14 15 15 14 14 14 13 13 13 7 359 2
215 216 214 207 199 195 191 185 180 180 179 175 169 164 159 155 154 157 165 173 175 176 176 172 168 169 176 183 191 179 129 26 7 25 35 33 31 27 23 18 15 14 17 18 18 18 18 18 19 20 19 18 18 18 17 15 14 14 14 12 8 1 2
206 209 211 208 200 195 191 186 182 182 181 176 170 166 165 164 163 166 172 173 174 177 178 174 172 176 180 182 187 183 162 111 20 25 31 33 36 31 24 17 11 13 17 20 20 20 20 21 22 21 20 22 23 22 20 18 15 15 16 14 11 8 7